• In Netherlands
  • List of Countries
  • For 7 days
  • Water Temperature
  • Satellite Maps
  • Weather Map
  • Weather Widgets
  • user-avatar
    Login

    Hourly Weather Orsha

    Today, 26 March, Sunday

    Time Temperature Precipitation Wind Pressure Humidity
    00:00 0°C° 0 mm 1 mps 745 mmHg 85%
    01:00 0°C° 0 mm 1 mps 745 mmHg 86%
    02:00 -1°C° 0 mm 1 mps 745 mmHg 85%
    03:00 -1°C° 0 mm 1 mps 746 mmHg 85%
    04:00 -1°C° 0 mm 1 mps 746 mmHg 84%
    05:00 -1°C° 0 mm 1 mps 746 mmHg 83%
    06:00 0°C° 0 mm 1 mps 747 mmHg 79%
    07:00 -1°C° 0 mm 2 mps 747 mmHg 74%
    08:00 +1°C° 0 mm 2 mps 748 mmHg 69%
    09:00 +2°C° 0 mm 2 mps 748 mmHg 64%
    10:00 +3°C° 0 mm 2 mps 748 mmHg 59%
    11:00 +4°C° 0 mm 2 mps 748 mmHg 54%
    12:00 +5°C° 0 mm 2 mps 748 mmHg 56%
    13:00 +4°C° 0 mm 3 mps 748 mmHg 57%
    14:00 +4°C° 0 mm 3 mps 747 mmHg 59%
    15:00 +4°C° 0 mm 3 mps 747 mmHg 64%
    16:00 +3°C° 0 mm 3 mps 747 mmHg 69%
    17:00 +3°C° 0 mm 3 mps 746 mmHg 74%
    18:00 +2°C° 0 mm 3 mps 746 mmHg 77%
    19:00 +1°C° 0 mm 3 mps 745 mmHg 81%
    20:00 0°C° 0 mm 4 mps 745 mmHg 84%
    21:00 0°C° 0.2 mm 5 mps 744 mmHg 85%
    22:00 -1°C° 0.2 mm 6 mps 743 mmHg 86%
    23:00 -1°C° 0.2 mm 6 mps 742 mmHg 87%

    Tomorrow, 27 March, Monday

    Time Temperature Precipitation Wind Pressure Humidity
    00:00 -1°C° 0.2 mm 6 mps 742 mmHg 88%
    01:00 +1°C° 0.2 mm 6 mps 741 mmHg 90%
    02:00 0°C° 0.2 mm 7 mps 740 mmHg 91%
    03:00 +1°C° 0.1 mm 6 mps 740 mmHg 90%
    04:00 +1°C° 0.1 mm 6 mps 740 mmHg 90%
    05:00 +1°C° 0.1 mm 6 mps 740 mmHg 90%
    06:00 +1°C° 0 mm 6 mps 741 mmHg 87%
    07:00 -1°C° 0 mm 6 mps 741 mmHg 85%
    08:00 -1°C° 0 mm 6 mps 742 mmHg 82%
    09:00 +1°C° 0 mm 6 mps 742 mmHg 78%
    10:00 +1°C° 0 mm 6 mps 743 mmHg 74%
    11:00 +2°C° 0 mm 7 mps 743 mmHg 70%
    12:00 +2°C° 0 mm 7 mps 743 mmHg 68%
    13:00 +3°C° 0 mm 6 mps 743 mmHg 66%
    14:00 +4°C° 0 mm 6 mps 743 mmHg 64%
    15:00 +4°C° 0 mm 6 mps 743 mmHg 67%
    16:00 +3°C° 0 mm 5 mps 742 mmHg 71%
    17:00 +4°C° 0 mm 4 mps 742 mmHg 74%
    18:00 +3°C° 0.1 mm 5 mps 741 mmHg 78%
    19:00 +3°C° 0.1 mm 5 mps 740 mmHg 83%
    20:00 +3°C° 0.1 mm 6 mps 739 mmHg 87%
    21:00 +4°C° 0.2 mm 6 mps 739 mmHg 88%
    22:00 +4°C° 0.2 mm 7 mps 738 mmHg 89%
    23:00 +5°C° 0.2 mm 7 mps 737 mmHg 90%

    Day after tomorrow, 28 March, Tuesday

    Time Temperature Precipitation Wind Pressure Humidity
    00:00 +5°C° 0.1 mm 7 mps 737 mmHg 89%
    01:00 +4°C° 0.1 mm 7 mps 737 mmHg 88%
    02:00 +4°C° 0.1 mm 7 mps 737 mmHg 86%
    03:00 +3°C° 0 mm 7 mps 738 mmHg 86%
    04:00 0°C° 0 mm 7 mps 738 mmHg 85%
    05:00 -1°C° 0 mm 6 mps 739 mmHg 85%
    06:00 -1°C° 0 mm 6 mps 739 mmHg 82%
    07:00 -1°C° 0 mm 6 mps 740 mmHg 80%
    08:00 -2°C° 0 mm 6 mps 740 mmHg 78%
    09:00 -1°C° 0.1 mm 6 mps 741 mmHg 76%
    10:00 -1°C° 0.1 mm 6 mps 741 mmHg 75%
    11:00 -1°C° 0.1 mm 7 mps 741 mmHg 74%
    12:00 0°C° 0 mm 7 mps 742 mmHg 70%
    13:00 0°C° 0 mm 7 mps 742 mmHg 67%
    14:00 0°C° 0 mm 7 mps 742 mmHg 63%
    15:00 0°C° 0 mm 7 mps 743 mmHg 65%
    16:00 -1°C° 0 mm 6 mps 743 mmHg 66%
    17:00 -1°C° 0 mm 6 mps 744 mmHg 67%
    18:00 -1°C° 0 mm 5 mps 744 mmHg 71%
    19:00 -2°C° 0 mm 4 mps 745 mmHg 74%
    20:00 -2°C° 0 mm 3 mps 745 mmHg 77%
    21:00 -2°C° 0 mm 3 mps 746 mmHg 78%
    22:00 -2°C° 0 mm 3 mps 746 mmHg 79%
    23:00 -4°C° 0 mm 3 mps 746 mmHg 81%

    29 March, Wednesday

    Time Temperature Precipitation Wind Pressure Humidity
    00:00 -4°C° 0 mm 3 mps 747 mmHg 81%
    01:00 -4°C° 0 mm 3 mps 747 mmHg 81%
    02:00 -4°C° 0 mm 3 mps 747 mmHg 82%
    03:00 -4°C° 0 mm 3 mps 747 mmHg 82%
    04:00 -5°C° 0 mm 3 mps 747 mmHg 82%
    05:00 -5°C° 0 mm 3 mps 748 mmHg 82%
    06:00 -4°C° 0 mm 3 mps 748 mmHg 77%
    07:00 -2°C° 0 mm 3 mps 748 mmHg 72%
    08:00 -2°C° 0 mm 3 mps 748 mmHg 67%
    09:00 -1°C° 0 mm 3 mps 748 mmHg 60%
    10:00 0°C° 0 mm 3 mps 748 mmHg 54%
    11:00 +1°C° 0 mm 3 mps 748 mmHg 47%
    12:00 +2°C° 0 mm 3 mps 747 mmHg 45%
    13:00 +3°C° 0 mm 2 mps 747 mmHg 43%
    14:00 +4°C° 0 mm 2 mps 747 mmHg 41%
    15:00 +4°C° 0 mm 2 mps 746 mmHg 44%
    16:00 +5°C° 0 mm 1 mps 746 mmHg 47%
    17:00 +5°C° 0 mm 1 mps 746 mmHg 50%
    18:00 +4°C° 0 mm 1 mps 745 mmHg 52%
    19:00 +3°C° 0 mm 1 mps 745 mmHg 55%
    20:00 +2°C° 0 mm 1 mps 745 mmHg 57%
    21:00 +2°C° 0 mm 1 mps 744 mmHg 60%
    22:00 -1°C° 0 mm 2 mps 744 mmHg 62%
    23:00 -1°C° 0 mm 2 mps 743 mmHg 65%

    30 March, Thursday

    Time Temperature Precipitation Wind Pressure Humidity
    00:00 -1°C° 0.1 mm 2 mps 743 mmHg 68%
    01:00 +1°C° 0.1 mm 1 mps 743 mmHg 70%
    02:00 +1°C° 0.1 mm 1 mps 743 mmHg 73%
    03:00 +1°C° 0.3 mm 1 mps 743 mmHg 78%
    04:00 0°C° 0.3 mm 1 mps 743 mmHg 83%
    05:00 0°C° 0.3 mm 1 mps 743 mmHg 88%
    06:00 -1°C° 0.2 mm 2 mps 743 mmHg 88%
    07:00 -1°C° 0.2 mm 2 mps 743 mmHg 88%
    08:00 -1°C° 0.2 mm 2 mps 744 mmHg 87%
    09:00 0°C° 0 mm 3 mps 744 mmHg 83%
    10:00 +1°C° 0 mm 3 mps 745 mmHg 79%
    11:00 +1°C° 0 mm 4 mps 745 mmHg 75%
    12:00 0°C° 0.1 mm 4 mps 746 mmHg 74%
    13:00 0°C° 0.1 mm 5 mps 747 mmHg 73%
    14:00 -1°C° 0.1 mm 6 mps 748 mmHg 73%
    15:00 0°C° 0 mm 5 mps 748 mmHg 72%
    16:00 -1°C° 0 mm 5 mps 749 mmHg 71%
    17:00 -2°C° 0 mm 5 mps 750 mmHg 70%
    18:00 -4°C° 0 mm 4 mps 751 mmHg 73%
    19:00 -5°C° 0 mm 3 mps 752 mmHg 76%
    20:00 -5°C° 0 mm 2 mps 753 mmHg 79%
    21:00 -5°C° 0 mm 2 mps 753 mmHg 78%
    22:00 -3°C° 0 mm 1 mps 754 mmHg 77%
    23:00 -4°C° 0 mm 1 mps 755 mmHg 76%

    31 March, Friday

    Time Temperature Precipitation Wind Pressure Humidity
    00:00 -4°C° 0 mm 1 mps 755 mmHg 75%
    01:00 -4°C° 0 mm 1 mps 755 mmHg 73%
    02:00 -4°C° 0 mm 1 mps 756 mmHg 72%
    03:00 -4°C° 0 mm 1 mps 756 mmHg 71%
    04:00 -3°C° 0 mm 1 mps 756 mmHg 69%
    05:00 -3°C° 0 mm 1 mps 756 mmHg 68%
    06:00 -3°C° 0 mm 1 mps 757 mmHg 63%
    07:00 -4°C° 0 mm 2 mps 757 mmHg 58%
    08:00 -3°C° 0 mm 2 mps 757 mmHg 52%
    09:00 -2°C° 0 mm 3 mps 757 mmHg 47%
    10:00 -1°C° 0 mm 3 mps 757 mmHg 42%
    11:00 0°C° 0 mm 3 mps 757 mmHg 37%
    12:00 0°C° 0 mm 4 mps 756 mmHg 37%
    13:00 0°C° 0 mm 4 mps 756 mmHg 36%
    14:00 +1°C° 0 mm 4 mps 756 mmHg 36%
    15:00 +1°C° 0 mm 4 mps 755 mmHg 39%
    16:00 0°C° 0 mm 4 mps 754 mmHg 42%
    17:00 0°C° 0 mm 4 mps 754 mmHg 45%
    18:00 -1°C° 0 mm 4 mps 754 mmHg 48%
    19:00 -1°C° 0 mm 4 mps 753 mmHg 50%
    20:00 -2°C° 0 mm 5 mps 753 mmHg 53%
    21:00 -2°C° 0 mm 5 mps 753 mmHg 55%
    22:00 -2°C° 0 mm 5 mps 752 mmHg 56%
    23:00 -2°C° 0 mm 5 mps 752 mmHg 58%
    Show more